This is the latest recevied weather packets stored in our database for station/object K6HFP. If no packets are shown the sender has not sent any weather packets the latest 10 day(s).
| Time | Temp. | Humidity | Pressure | Rain* | Wind** | Luminosity | Snow |
|---|---|---|---|---|---|---|---|
| 1778009587 | 14.44° C | 76% | 1014.4 hPa | 0 mm | - | 377 W/m² | - |
| 1778009285 | 14.44° C | 78% | 1014.7 hPa | 0 mm | - | 389 W/m² | - |
| 1778008982 | 14.44° C | 80% | 1014.9 hPa | 0 mm | - | 401 W/m² | - |
| 1778008680 | 13.89° C | 79% | 1014.9 hPa | 0 mm | - | 335 W/m² | - |
| 1778008378 | 13.89° C | 80% | 1014.3 hPa | 0 mm | - | 263 W/m² | - |
| 1778008074 | 13.89° C | 80% | 1014.6 hPa | 0 mm | - | 277 W/m² | - |
| 1778007769 | 14.44° C | 79% | 1014.6 hPa | 0 mm | - | 284 W/m² | - |
| 1778007466 | 13.89° C | 79% | 1014.6 hPa | 0 mm | - | 362 W/m² | - |
| 1778007163 | 14.44° C | 80% | 1014.6 hPa | 0 mm | - | 356 W/m² | - |
| 1778006858 | 14.44° C | 78% | 1014.4 hPa | 0 mm | - | 410 W/m² | - |
| 1778006556 | 13.89° C | 80% | 1014.6 hPa | 0 mm | - | 574 W/m² | - |
| 1778006253 | 13.89° C | 82% | 1014.6 hPa | 0 mm | - | 518 W/m² | - |
| 1778005950 | 13.89° C | 84% | 1014.2 hPa | 0 mm | - | 619 W/m² | - |
| 1778005646 | 13.33° C | 85% | 1014.4 hPa | 0 mm | - | 498 W/m² | - |
| 1778005344 | 13.33° C | 84% | 1014.6 hPa | 0 mm | - | 508 W/m² | - |
| 1778005040 | 13.33° C | 84% | 1014.6 hPa | 0 mm | - | 402 W/m² | - |
| 1778004737 | 12.78° C | 86% | 1014.7 hPa | 0 mm | - | 379 W/m² | - |
| 1778004434 | 12.78° C | 86% | 1014.4 hPa | 0 mm | - | 321 W/m² | - |
| 1778004131 | 12.78° C | 87% | 1014.7 hPa | 0 mm | - | 342 W/m² | - |
| 1778003827 | 12.78° C | 87% | 1014.8 hPa | 0 mm | - | 296 W/m² | - |
| 1778003523 | 12.78° C | 87% | 1014.8 hPa | 0 mm | - | 301 W/m² | - |
| 1778003220 | 12.78° C | 87% | 1014.4 hPa | 0 mm | - | 286 W/m² | - |
| 1778002916 | 12.78° C | 88% | 1014.7 hPa | 0 mm | - | 233 W/m² | - |
| 1778002613 | 12.22° C | 88% | 1014.6 hPa | 0 mm | - | 280 W/m² | - |
| 1778002310 | 12.22° C | 89% | 1014.4 hPa | 0 mm | - | 264 W/m² | - |
* Rain latest hour (hover to see other rain measurements)
** Current wind speed in m/s (hover to see current wind gust speed)